CW0762 Weather Reports


Display with metric or nautical units.
time (UTC)temp
F
wind
direction
speed
MPH
gust
MPH
rain 1hr
in
rain 24hr
in
rain mn
in
humidity
%
barometer
mb
20260508071536 62 59 0.0 0.0 0.00 0.00 0.00 77 1016.8
20260508070018 62 59 0.0 0.0 0.00 0.00 0.00 76 1016.4
20260508064516 62 59 0.0 0.0 0.00 0.00 0.00 76 1016.4
20260508063028 62 59 0.0 0.0 0.00 0.00 0.00 75 1016.7
20260508061516 62 59 0.0 0.0 0.00 0.00 0.00 74 1017.0
20260508060011 62 59 0.0 0.0 0.00 0.00 0.00 74 1017.0
20260508054512 62 59 0.0 0.0 0.00 0.00 0.00 73 1016.8
20260508053010 63 59 0.0 0.0 0.00 0.00 0.00 72 1016.8
20260508051507 63 59 0.0 0.0 0.00 0.00 0.00 72 1017.0
20260508050005 63 59 0.0 0.0 0.00 0.00 0.00 71 1016.9
20260508044506 63 59 0.0 0.0 0.00 0.00 0.00 70 1017.0
20260508043005 63 59 0.0 0.0 0.00 0.00 0.00 69 1017.0
20260508041504 64 59 0.0 0.0 0.00 0.00 0.00 68 1016.9
20260508040004 64 59 0.0 0.0 0.00 0.00 0.00 66 1016.9
20260508034504 64 59 0.0 0.0 0.00 0.00 0.00 66 1016.7
20260508033003 65 59 0.0 0.0 0.00 0.00 0.00 65 1016.7
20260508031503 65 59 0.0 0.0 0.00 0.00 0.00 64 1016.6
20260508030005 65 59 0.0 1.0 0.00 0.00 0.00 63 1016.5
20260508024502 66 59 0.0 0.0 0.00 0.00 0.00 63 1016.4
20260508023002 66 59 0.0 0.0 0.00 0.00 0.00 62 1016.1
20260508021501 67 59 0.0 1.0 0.00 0.00 0.00 62 1016.1
20260508020105 67 59 0.0 3.0 0.00 0.00 0.00 61 1016.0
20260508014600 67 59 0.0 2.0 0.00 0.00 0.00 60 1015.9
20260508013100 68 59 0.0 3.0 0.00 0.00 0.00 60 1015.9
20260508011600 68 55 0.0 3.0 0.00 0.00 0.00 59 1015.9
20260508010100 68 47 0.0 4.0 0.00 0.00 0.00 58 1016.0
20260508004603 69 36 0.0 5.0 0.00 0.00 0.00 57 1015.7
20260508003105 69 53 2.0 4.0 0.00 0.00 0.00 56 1015.7
20260508001556 70 56 2.0 7.0 0.00 0.00 0.00 55 1015.9
20260508000058 71 33 1.0 4.0 0.00 0.00 0.00 54 1016.2
20260507234557 72 28 2.0 6.0 0.00 0.00 0.00 53 1016.0
20260507233056 73 77 1.0 3.0 0.00 0.00 0.00 51 1015.9
20260507231558 73 304 0.0 1.0 0.00 0.00 0.00 49 1015.9
20260507230053 73 304 0.0 1.0 0.00 0.00 0.00 50 1016.2
20260507224558 73 304 0.0 1.0 0.00 0.00 0.00 49 1016.2
20260507223052 73 304 0.0 1.0 0.00 0.00 0.00 49 1016.3
20260507221550 74 304 0.0 0.0 0.00 0.00 0.00 48 1016.4
20260507220050 74 304 0.0 0.0 0.00 0.00 0.00 48 1016.4
20260507214601 74 304 0.0 2.0 0.00 0.00 0.00 46 1016.7
20260507213046 75 304 0.0 1.0 0.00 0.00 0.00 46 1016.9
20260507211548 76 302 0.0 2.0 0.00 0.00 0.00 45 1017.0
20260507210044 76 282 0.0 3.0 0.00 0.00 0.00 44 1017.1
20260507204543 76 283 0.0 2.0 0.00 0.00 0.00 45 1017.1
20260507203101 76 281 1.0 3.0 0.00 0.00 0.00 44 1017.1
20260507201549 77 280 0.0 4.0 0.00 0.00 0.00 43 1017.5
20260507200053 77 232 0.0 4.0 0.00 0.00 0.00 43 1017.8
20260507194536 77 313 0.0 4.0 0.00 0.00 0.00 44 1017.9
20260507193033 76 286 0.0 6.0 0.00 0.00 0.00 44 1018.2
20260507191530 76 286 0.0 4.0 0.00 0.00 0.00 45 1018.4
20260507190028 75 263 0.0 3.0 0.00 0.00 0.00 45 1018.7
20260507184524 74 295 0.0 5.0 0.00 0.00 0.00 47 1018.7
20260507183023 73 47 0.0 7.0 0.00 0.00 0.00 46 1018.9
20260507181528 73 273 1.0 4.0 0.00 0.00 0.00 48 1019.0
20260507180024 73 265 0.0 3.0 0.00 0.00 0.00 51 1019.5
20260507174520 72 280 0.0 3.0 0.00 0.00 0.00 51 1019.5
20260507173029 71 272 0.0 3.0 0.00 0.00 0.00 52 1020.1
20260507171513 71 290 0.0 2.0 0.00 0.00 0.00 55 1020.6
20260507170009 70 284 0.0 2.0 0.00 0.00 0.00 56 1021.0
20260507164506 68 285 0.0 3.0 0.00 0.00 0.00 56 1021.1
20260507163007 68 290 0.0 3.0 0.00 0.00 0.00 59 1021.3
20260507161604 66 248 0.0 4.0 0.00 0.00 0.00 61 1021.2
20260507160058 65 279 0.0 4.0 0.00 0.00 0.00 64 1021.2
20260507154558 64 279 0.0 3.0 0.00 0.02 0.00 62 1021.3
20260507153050 63 273 0.0 3.0 0.00 0.02 0.00 67 1021.3
20260507151546 62 275 0.0 3.0 0.00 0.02 0.00 72 1021.6
20260507150043 61 273 0.0 3.0 0.00 0.02 0.00 75 1021.7
20260507144542 60 275 0.0 2.0 0.00 0.02 0.00 79 1021.8
20260507143038 59 276 0.0 2.0 0.00 0.02 0.00 82 1021.9
20260507141533 57 279 0.0 2.0 0.00 0.02 0.00 85 1021.9
20260507140033 55 280 0.0 2.0 0.00 0.02 0.00 87 1022.0
20260507134537 55 280 0.0 2.0 0.00 0.02 0.00 87 1022.1
20260507133041 54 280 0.0 1.0 0.00 0.02 0.00 88 1022.4
20260507131541 53 280 0.0 0.0 0.00 0.02 0.00 88 1022.2
20260507130035 53 280 0.0 1.0 0.00 0.02 0.00 89 1022.1
20260507124531 52 280 0.0 1.0 0.00 0.02 0.00 89 1021.9
20260507123028 52 280 0.0 1.0 0.00 0.02 0.00 90 1021.8
20260507121526 52 280 0.0 0.0 0.00 0.02 0.00 90 1021.8
20260507120027 52 280 0.0 0.0 0.00 0.02 0.00 90 1021.5
20260507114523 52 280 0.0 0.0 0.00 0.02 0.00 90 1021.3
20260507113023 52 280 0.0 0.0 0.00 0.02 0.00 89 1021.2
20260507111522 52 280 0.0 1.0 0.00 0.02 0.00 89 1021.0
20260507110019 52 281 0.0 0.0 0.00 0.02 0.00 88 1021.2
20260507104517 53 281 0.0 0.0 0.00 0.02 0.00 88 1020.9
20260507103016 53 281 0.0 0.0 0.00 0.02 0.00 87 1020.7
20260507101515 53 281 0.0 0.0 0.00 0.02 0.00 87 1020.3
20260507100009 54 281 0.0 0.0 0.00 0.02 0.00 87 1020.1
20260507094507 54 281 0.0 1.0 0.00 0.02 0.00 87 1019.7
20260507093006 54 281 0.0 1.0 0.00 0.02 0.00 86 1019.6
20260507091503 54 281 0.0 1.0 0.00 0.02 0.00 85 1019.4
20260507090006 55 281 0.0 0.0 0.00 0.02 0.00 84 1019.5
20260507084603 55 281 0.0 0.0 0.00 0.02 0.00 84 1019.5
20260507083059 55 281 0.0 0.0 0.00 0.02 0.00 84 1019.5
20260507081557 55 281 0.0 0.0 0.00 0.02 0.00 84 1019.5
20260507080117 56 280 0.0 2.0 0.00 0.02 0.00 84 1019.4
20260507074555 56 281 0.0 2.0 0.00 0.02 0.00 82 1019.2
20260507073102 56 281 0.0 3.0 0.00 0.02 0.00 82 1019.1